Regional Weather Roundup
Issued by NWS Grand Forks, ND

Home | Current Version | Previous Version | Text Only | Print | Product List | Glossary Off
Versions: 1 2 3 4 5 6 7 8 9 10 11 12 13 14 15 16 17 18 19 20 21 22 23 24 25 26 27 28 29 30 31 32 33 34 35 36 37 38 39 40 41 42 43 44 45 46 47 48 49 50

000
ASUS43 KFGF 260431
RWRFGF
PRAIRIE TO PINES  WEATHER ROUNDUP
NATIONAL WEATHER SERVICE EASTERN NORTH DAKOTA/GRAND FORKS ND
1100 PM CDT TUE JUL 25 2017

 **SATELLITE DATA USED TO AUGMENT SKY COVER AT AUTOMATED STATIONS**
 *****  WEATHER ACROSS EASTERN NORTH DAKOTA  *****

CITY           SKY/WX    TMP DP  RH WIND       PRES   REMARKS
GRAND FORKS    FAIR      65  60  84 W5        29.94S
GRAND FRKS AFB FAIR      62  57  86 W3        29.96R
DEVILS LAKE    FAIR      67  61  81 SW3       29.99S
FARGO          FAIR      70  62  76 CALM      29.97R
WAHPETON ARPT  FAIR      70  66  88 CALM      29.99S
$$

 ***** WEATHER ACROSS CENTRAL AND WESTERN NORTH DAKOTA  *****

CITY           SKY/WX    TMP DP  RH WIND       PRES   REMARKS
BISMARCK       FAIR      75  54  47 N7        30.01R
MINOT          FAIR      69  54  58 NW9       30.01R
JAMESTOWN      FAIR      67  57  70 NE3       30.00R
MINOT AFB      FAIR      62  55  77 NW6       30.00R
GARRISON         N/A     67  54  63 N3        30.02R
WILLISTON      FAIR      73  47  39 N8        30.04R
DICKINSON      FAIR      74  46  36 N7        30.04R
HETTINGER      FAIR      70  57  63 CALM      30.07R
$$

 *****  OTHER AIRPORT OBSERVATIONS IN OUR AREA  *****

CITY           SKY/WX    TMP DP  RH WIND       PRES   REMARKS
WALHALLA       NOT AVBL
GRAFTON AIRPOR FAIR      64  61  88 W6        29.96R
VALLEY CITY AR FAIR      64  63  94 CALM      30.04R
CANDO          NOT AVBL
CAVALIER APRT  FAIR      63  59  88 SW5       29.94R
GWINNER        CLEAR     68  66  94 CALM      30.02R
SHEYENNE NWR     N/A     69  65  85 CALM      29.95
ROLLA            N/A     57  57 100 W7        30.00S
 ***** THE ABOVE OBSERVATIONS ARE NON NWS ARE NOT QUALITY
       CONTROLLED AND MAY MIS-REPORT RAIN FOR SNOW...
$$

  *****  WEATHER ACROSS NORTHERN MINNESOTA  *****

CITY           SKY/WX    TMP DP  RH WIND       PRES   REMARKS
FLAG ISLAND    FAIR      68  57  68 W8        29.88S
WARROAD        FAIR      64  61  88 W7        29.92S
ROSEAU         FAIR      66  57  72 W6        29.92S
HALLOCK        FAIR      63  59  88 W3        29.93R
THF RVR FALLS  FAIR      66  58  75 W5        29.97R
BAUDETTE       FAIR      65  58  78 W7        29.91R
WASKISH        FAIR      70  61  73 W6        29.93R
CROOKSTON      FAIR      64  59  82 W3        29.98R
STEPHEN NDAWN    N/A     64  57  77 W3          N/A
GREENBUSH NDAW   N/A     63  57  82 W3          N/A
$$
  *****  WEATHER ACROSS CENTRAL AND WEST MINNESOTA  *****

CITY           SKY/WX    TMP DP  RH WIND       PRES   REMARKS
FOSSTON        FAIR      66  57  72 NW6       29.99R
BEMIDJI        FAIR      69  67  92 W6        29.96R
PARK RAPIDS    FAIR      67  64  90 W6        29.97R
ELBOW LAKE     FAIR      73  71  95 CALM      29.99S
WADENA         FAIR      70  70 100 SW5       30.00R
DETROIT LAKES  FAIR      70  68  94 W7        30.02R
MOORHEAD       FAIR      70  66  88 CALM      30.01R
FERGUS FALLS   FAIR      72  72 100 CALM      29.99R
MORRIS MN      FAIR      73  70  88 CALM      29.97S
STAPLES        MOCLDY    70  68  94 CALM      29.99S
$$
  *****  WEATHER ELSEWHERE ACROSS MINNESOTA  *****

CITY           SKY/WX    TMP DP  RH WIND       PRES   REMARKS
DULUTH         MOCLDY    68  67  96 SW3       29.94S
INTRNTL FALLS  MOCLDY    64  60  87 W5        29.89R
ELY            CLOUDY    70  66  88 SW7       29.91S
CLOQUET        FAIR      68  64  88 CALM      29.95R
WHEATON        FAIR      73  70  88 S3        30.00R
BRAINERD       MOCLDY    72  70  93 SW9       29.98R
HIBBING        FAIR      66  66 100 CALM      29.92F
ALEXANDRIA     FAIR      70  69  97 SW6       30.01R
SAINT CLOUD    LGT RAIN  72  72 100 SW5       29.99R
MINNEAPOLIS    CLOUDY    79  72  79 SW9       29.94R
$$

  *****  WEATHER ACROSS SOUTH DAKOTA  *****

CITY           SKY/WX    TMP DP  RH WIND       PRES   REMARKS
SIOUX FALLS    TSTM      75  73  93 NW15      30.03R FOG
BROOKINGS      LGT RAIN  71  68  90 N7        30.00R
WATERTOWN      FAIR      72  66  81 N6        30.00R
HURON          LGT RAIN  72  70  93 S7        29.97F
SISSETON         N/A     73  72  96 CALM      29.98R
ABERDEEN       FAIR      76  70  82 N12       30.00R
MITCHELL       TSTM      71  70  96 E12       30.02S
PIERRE         FAIR      77  65  66 NE14      29.97S
MOBRIDGE       NOT AVBL
RAPID CITY     FAIR      75  53  46 N8        30.12R
$$

  *****  SOME WEATHER IN NEARBY STATES *****

CITY           SKY/WX    TMP DP  RH WIND       PRES   REMARKS
GLASGOW MT     FAIR      73  44  35 N3        30.05S
GREAT FALLS MT FAIR      72  36  26 NE13      30.06R
CHEYENNE WY    FAIR      66  54  65 N17G28    30.23S
SCOTTSBLUFF NE LGT RAIN  79  57  46 N15       30.05R
OMAHA NE       MOCLDY    85  73  67 SE15      29.98R HX  91
DES MOINES IA  CLOUDY    82  73  74 S9        30.01S
DAVENPORT IA   FAIR      72  67  84 SE7       30.10F
CHICAGO IL     FAIR      70  58  65 S5        30.14F
EAU CLAIRE WI  FAIR      73  66  78 S5        29.96S
LA CROSSE WI   FAIR      78  69  73 S16       29.97F
$$

  *****  SOME NATIONAL WEATHER *****

CITY           SKY/WX    TMP DP  RH WIND       PRES   REMARKS
LA GUARDIA NY  CLOUDY    67  60  78 NE9       30.22R
RALEIGH NC     FAIR      79  72  79 E9        30.13R
ATLANTA GA     MOCLDY    78  72  81 S3        30.12F
NEW ORLEANS LA MOCLDY    84  73  69 CALM      30.13R HX  90
OKLAHOMA CITY  FAIR      82  72  71 S10       30.04R
ALBUQUERQUE NM FAIR      80  55  42 N8        30.21R
SALT LAKE CITY MOCLDY    80  59  48 S9        30.08R
LOS ANGELES CA FAIR      68  63  84 W8        29.97R
BOISE ID       FAIR      85  48  27 W5        29.92S
SEATTLE WA     FAIR      75  51  43 NW8       29.99S
$$

*** WEATHER ACROSS MANITOBA...SASKATCHEWAN AND ONTARIO ***
                ***ONTARIO***

CITY           SKY/WX    TMP DP  RH WIND       PRES   REMARKS
GERALDTON      TSTM      64  52  63 SW16G24   29.83F
THUNDER BAY    CLOUDY    70  63  78 SW10G17   29.86F
SIOUX LOOKOUT  PTCLDY    66  57  72 W8        29.82R
TORONTO        CLEAR     64  55  72 S2        30.22S
BIG TROUT LK   CLOUDY    63  61  94 SW6       29.59F
PICKLE LAKE    NOT AVBL
DRYDEN         CLEAR     64  57  77 W8        29.85R
KENORA         PTCLDY    64  57  77 SW6       29.87R
$$
                *** MANITOBA***

CITY           SKY/WX    TMP DP  RH WIND       PRES   REMARKS
BRANDON        CLEAR     59  57  94 W9        29.97R
DAUPHIN        CLEAR     64  61  88 W9        29.92R
ISLAND LAKE    NOT AVBL
PILOT MOUND      N/A     59  55  88 SW6         N/A
THE PAS        PTCLDY    64  59  82 W7        29.89R
THOMPSON       MOCLDY    63  59  88 W2        29.74R
WINNIPEG       PTCLDY    64  61  88 W8        29.89R
LYNN LAKE      PTCLDY    64  55  72 W7        29.81S
CHURCHILL      FOG       50  50 100 W2        29.66R VSB 1
GILLAM         CLOUDY    61  59  94 NW10      29.65R
$$
                ***SASKATCHEWAN***

CITY           SKY/WX    TMP DP  RH WIND       PRES   REMARKS
ESTEVAN        PTCLDY    61  54  77 NW3       30.04R
KINDERSLEY     PTCLDY    59  52  77 E8        30.08R
LLOYDMINSTER   PTCLDY    59  54  82 S3        30.06R
PRINCE ALBERT  PTCLDY    61  54  77 CALM      30.02R
REGINA         PTCLDY    63  52  67 NW6       30.06R
YORKTON        CLEAR     63  59  88 W10       30.01R
N. BATTLEFORD  CLEAR     61  54  77 NW3       30.07R
LA RONGE       PTCLDY    63  55  77 W5        29.97R
SASKATOON      PTCLDY    59  54  82 W6        30.06R
SWIFT CURRENT  CLEAR     63  46  55 E3        30.10R
$$
NOTE: THESE ARE AUTOMATED STATIONS WITH LIMITED QUALITY CONTROL
      "FAIR" INDICATES FEW OR NO CLOUDS BELOW 12,000 FEET WITH NO
      SIGNIFICANT WEATHER AND/OR OBSTRUCTIONS TO VISIBILITY.
      SKY/WX - SKY CONDITION AND SIGNIFICANT WEATHER.
      TMP - AIR TEMPERATURE.    DP   - DEWPOINT TEMPERATURE.
      RH  - RELATIVE HUMIDITY.  PRES - PRESSURE.
      HX  - HEAT INDEX.         WCI  - WIND CHILL INDEX.
$




USA.gov is the U.S. government's official web portal to all federal, state and local government web resources and services.